Weather History for KBDH - April, 2013

Change the Weather History Date:

Wednesday, April 10, 2013

  Actual Average (KLJF) Record (KLJF)
Temperature  
Mean Temperature 38 °F -  
Max Temperature 41 °F 53 °F 86 °F (1977)
Min Temperature 35 °F 30 °F 15 °F (1989)
Degree Days  
Heating Degree Days 27    
Moisture  
Dew Point 20 °F    
Average Humidity 49    
Maximum Humidity 70    
Minimum Humidity 31    
Precipitation  
Precipitation 0.04 in - - ()
Sea Level Pressure  
Sea Level Pressure 30.05 in    
Wind  
Wind Speed 13 mph (ENE)    
Max Wind Speed 21 mph    
Max Gust Speed 29 mph    
Visibility 7 miles    
Events Snow    
Averages and records for this station are not official NWS values.
T = Trace of Precipitation, MM = Missing Value Source: NWS Daily Summary

Daily Weather History Graph

Daily Weather History Graph

Search for Another Location

Airport or City:

Trip Planner

Search our weather history database for the weather conditions in past years. The results will help you decide how hot, cold, wet, or windy it might be!

Date:

Astronomy

Apr. 10, 2013 Rise Set
Actual Time 6:44 AM CDT 8:00 PM CDT
Civil Twilight 6:13 AM CDT 8:30 PM CDT
Nautical Twilight 5:37 AM CDT 9:07 PM CDT
Astronomical Twilight 4:58 AM CDT 9:46 PM CDT
Moon 6:39 AM CDT (4/10) 8:39 PM CDT (4/10)
Length of Visible Light 14h 16m
Length of Day
13h 16m
New Moon, 0% of the Moon is Illuminated
Apr 10
New Moon
Apr 18
First Quarter
Apr 25
Full
May 2
Last Quarter
May 9
New

Hourly Weather History & Observations

Time (CDT) Temp. Windchill Dew Point Humidity Pressure Visibility Wind Dir Wind Speed Gust Speed Precip Events Conditions
12:15 AM 39.2 °F 32.5 °F 21.2 °F 49% 30.18 in 10.0 mi NE 10.4 mph - N/A   Scattered Clouds
12:35 AM 39.2 °F 32.5 °F 21.2 °F 49% 30.19 in 10.0 mi North 10.4 mph - N/A   Mostly Cloudy
12:53 AM 39.2 °F 32.5 °F 21.2 °F 49% 30.17 in 10.0 mi NE 10.4 mph - N/A   Overcast
1:16 AM 37.4 °F 26.9 °F 21.2 °F 52% 30.05 in 10.0 mi NE 20.7 mph 28.8 mph N/A   Overcast
1:35 AM 39.2 °F 30.2 °F 21.2 °F 49% 30.10 in 10.0 mi ENE 17.3 mph 21.9 mph N/A   Scattered Clouds
1:55 AM 39.2 °F 30.8 °F 19.4 °F 45% 30.14 in 10.0 mi ENE 15.0 mph 24.2 mph N/A   Mostly Cloudy
2:15 AM 39.2 °F 32.5 °F 19.4 °F 45% 30.18 in 10.0 mi North 10.4 mph - N/A   Overcast
2:35 AM 39.2 °F 33.6 °F 21.2 °F 49% 30.16 in 10.0 mi North 8.1 mph - N/A   Overcast
2:55 AM 39.2 °F 31.6 °F 19.4 °F 45% 30.14 in 10.0 mi NNE 12.7 mph - N/A   Mostly Cloudy
3:13 AM 39.2 °F 31.2 °F 19.4 °F 45% 30.12 in 10.0 mi NE 13.8 mph 17.3 mph N/A   Scattered Clouds
3:35 AM 39.2 °F 30.8 °F 19.4 °F 45% 30.11 in 10.0 mi NE 15.0 mph 18.4 mph N/A   Mostly Cloudy
7:02 AM 37.4 °F 27.8 °F 15.8 °F 41% 30.08 in 10.0 mi ENE 17.3 mph 25.3 mph N/A   Overcast
7:15 AM 37.4 °F 29.3 °F 15.8 °F 41% 30.09 in 10.0 mi ENE 12.7 mph 19.6 mph N/A   Overcast
7:56 AM 37.4 °F 28.5 °F 15.8 °F 41% 30.10 in 10.0 mi NE 15.0 mph 20.7 mph N/A   Overcast
8:15 AM 37.4 °F 29.3 °F 15.8 °F 41% 30.10 in 10.0 mi NE 12.7 mph 20.7 mph N/A   Overcast
8:35 AM 37.4 °F 28.5 °F 15.8 °F 41% 30.09 in 10.0 mi ENE 15.0 mph - N/A   Overcast
8:56 AM 37.4 °F 28.9 °F 15.8 °F 41% 30.07 in 10.0 mi ENE 13.8 mph 21.9 mph N/A   Overcast
9:15 AM 37.4 °F 28.5 °F 15.8 °F 41% 30.09 in 10.0 mi ENE 15.0 mph 23.0 mph N/A   Overcast
9:35 AM 37.4 °F 27.8 °F 15.8 °F 41% 30.08 in 10.0 mi NE 17.3 mph 25.3 mph N/A   Overcast
9:56 AM 37.4 °F 26.9 °F 15.8 °F 41% 30.07 in 10.0 mi NE 20.7 mph 25.3 mph N/A   Overcast
10:15 AM 37.4 °F 28.2 °F 15.8 °F 41% 30.08 in 10.0 mi NE 16.1 mph 23.0 mph N/A   Overcast
10:36 AM 39.2 °F 30.8 °F 15.8 °F 39% 30.09 in 10.0 mi NE 15.0 mph 25.3 mph N/A   Overcast
10:55 AM 39.2 °F 30.8 °F 14.0 °F 36% 30.09 in 10.0 mi NE 15.0 mph 19.6 mph N/A   Overcast
11:15 AM 39.2 °F 30.2 °F 12.2 °F 33% 30.09 in 10.0 mi ENE 17.3 mph - N/A   Overcast
11:35 AM 39.2 °F 30.8 °F 12.2 °F 33% 30.08 in 10.0 mi NE 15.0 mph 25.3 mph N/A   Overcast
12:15 PM 39.2 °F 31.6 °F 12.2 °F 33% 30.10 in 10.0 mi NE 12.7 mph 18.4 mph N/A   Overcast
12:35 PM 39.2 °F 30.8 °F 12.2 °F 33% 30.09 in 10.0 mi NE 15.0 mph 20.7 mph N/A   Mostly Cloudy
12:55 PM 39.2 °F 32.0 °F 14.0 °F 36% 30.08 in 10.0 mi NE 11.5 mph 20.7 mph N/A   Scattered Clouds
1:15 PM 39.2 °F 30.5 °F 12.2 °F 33% 30.08 in 10.0 mi ENE 16.1 mph 19.6 mph N/A   Scattered Clouds
1:36 PM 41.0 °F 33.5 °F 12.2 °F 31% 30.09 in 10.0 mi NE 13.8 mph 17.3 mph N/A   Clear
2:15 PM 39.2 °F 31.6 °F 15.8 °F 39% 30.09 in 10.0 mi ENE 12.7 mph 24.2 mph N/A   Mostly Cloudy
2:35 PM 39.2 °F 30.2 °F 15.8 °F 39% 30.08 in 3.0 mi ENE 17.3 mph 26.5 mph N/A   Haze
2:55 PM 39.2 °F 29.8 °F 19.4 °F 45% 30.07 in 3.0 mi ENE 18.4 mph 26.5 mph N/A   Haze
3:15 PM 39.2 °F 31.2 °F 19.4 °F 45% 30.07 in 5.0 mi ENE 13.8 mph 24.2 mph N/A   Haze
3:35 PM 39.2 °F 30.2 °F 19.4 °F 45% 30.06 in 4.0 mi East 17.3 mph 25.3 mph N/A   Scattered Clouds
3:55 PM 39.2 °F 30.8 °F 21.2 °F 49% 30.05 in 2.5 mi ENE 15.0 mph 21.9 mph N/A   Mostly Cloudy
4:15 PM 37.4 °F 28.2 °F 23.0 °F 56% 30.04 in 2.0 mi ENE 16.1 mph 21.9 mph N/A   Overcast
4:35 PM 37.4 °F 29.3 °F 24.8 °F 60% 30.06 in 1.0 mi ENE 12.7 mph - N/A   Overcast
4:55 PM 37.4 °F 29.8 °F 26.6 °F 65% 30.04 in 0.8 mi ENE 11.5 mph 17.3 mph N/A Snow Light Snow
5:15 PM 37.4 °F 29.8 °F 28.4 °F 70% 30.04 in 0.8 mi ENE 11.5 mph 16.1 mph N/A Snow Light Snow
5:35 PM 37.4 °F 29.3 °F 28.4 °F 70% 30.04 in 0.8 mi ENE 12.7 mph - 0.01 in Snow Light Snow
5:55 PM 37.4 °F 29.8 °F 28.4 °F 70% 30.02 in 1.0 mi ENE 11.5 mph - 0.02 in Snow Light Snow
6:15 PM 37.4 °F 29.8 °F 28.4 °F 70% 30.00 in 0.8 mi ENE 11.5 mph - N/A Snow Light Snow
6:36 PM 37.4 °F 30.3 °F 28.4 °F 70% 30.00 in 1.0 mi ENE 10.4 mph 18.4 mph 0.01 in Snow Light Snow
6:55 PM 37.4 °F 29.3 °F 28.4 °F 70% 30.00 in 2.5 mi East 12.7 mph 18.4 mph 0.01 in Snow Light Snow
7:15 PM 39.2 °F 30.8 °F 24.8 °F 56% 29.97 in 7.0 mi ENE 15.0 mph 19.6 mph N/A   Mostly Cloudy
7:36 PM 39.2 °F 32.0 °F 21.2 °F 49% 29.95 in 10.0 mi East 11.5 mph - N/A   Mostly Cloudy
7:55 PM 39.2 °F 33.0 °F 21.2 °F 49% 29.94 in 10.0 mi East 9.2 mph - N/A   Overcast
8:15 PM 39.2 °F 34.2 °F 21.2 °F 49% 29.92 in 10.0 mi East 6.9 mph - N/A   Overcast
8:34 PM 39.2 °F 33.6 °F 21.2 °F 49% 29.93 in 10.0 mi East 8.1 mph - N/A   Overcast
8:55 PM 39.2 °F 32.5 °F 21.2 °F 49% 29.93 in 10.0 mi East 10.4 mph - N/A   Overcast
9:15 PM 39.2 °F 34.2 °F 21.2 °F 49% 29.95 in 10.0 mi ESE 6.9 mph - N/A   Overcast
9:35 PM 39.2 °F 32.5 °F 21.2 °F 49% 29.96 in 5.0 mi East 10.4 mph - N/A   Overcast
9:55 PM 37.4 °F 29.3 °F 23.0 °F 56% 29.96 in 3.0 mi East 12.7 mph 16.1 mph N/A   Overcast
10:15 PM 37.4 °F 29.8 °F 24.8 °F 60% 29.97 in 2.0 mi ENE 11.5 mph 17.3 mph N/A Snow Light Snow
10:35 PM 35.6 °F 27.1 °F 26.6 °F 70% 29.96 in 3.0 mi NE 12.7 mph - N/A Snow Light Snow
10:55 PM 35.6 °F 26.6 °F 26.6 °F 70% 29.95 in 5.0 mi NE 13.8 mph 19.6 mph N/A Snow Light Snow
11:15 PM 35.6 °F 25.5 °F 26.6 °F 70% 29.93 in 7.0 mi NE 17.3 mph - 0.01 in   Overcast
11:35 PM 35.6 °F 27.1 °F 24.8 °F 65% 29.93 in 7.0 mi NE 12.7 mph - 0.01 in Snow Light Snow
11:55 PM 35.6 °F 26.2 °F 24.8 °F 65% 29.91 in 7.0 mi NE 15.0 mph - 0.01 in Snow Light Snow